Time,TemperatureF,DewpointF,PressureIn,WindDirection,WindDirectionDegrees,WindSpeedMPH,WindSpeedGustMPH,Humidity,HourlyPrecipIn,Conditions,Clouds,dailyrainin,SoftwareType,DateUTC
2013-04-14 00:13:00,46.6,38.8,29.10,SE,135,0.0,-999.0,74,-99.99,,,0.00,Acu-Link.com,2013-04-14 05:13:00,
2013-04-14 00:28:00,46.4,38.6,29.09,NNE,22,0.0,-999.0,74,-99.99,,,0.00,Acu-Link.com,2013-04-14 05:28:00,
2013-04-14 00:43:00,46.4,38.9,29.08,SE,135,0.0,-999.0,75,-99.99,,,0.00,Acu-Link.com,2013-04-14 05:43:00,
2013-04-14 00:59:00,46.4,39.3,29.08,ESE,112,0.0,-999.0,76,-99.99,,,0.00,Acu-Link.com,2013-04-14 05:59:00,
2013-04-14 01:14:00,46.0,39.2,29.07,NNE,22,0.0,-999.0,77,-99.99,,,0.00,Acu-Link.com,2013-04-14 06:14:00,
2013-04-14 01:29:00,45.5,38.7,29.06,NE,45,0.0,-999.0,77,-99.99,,,0.00,Acu-Link.com,2013-04-14 06:29:00,
2013-04-14 01:44:00,45.3,38.9,29.06,WSW,247,0.0,-999.0,78,-99.99,,,0.00,Acu-Link.com,2013-04-14 06:44:00,
2013-04-14 02:00:00,45.1,38.7,29.05,West,270,0.0,-999.0,78,-99.99,,,0.00,Acu-Link.com,2013-04-14 07:00:00,
2013-04-14 02:18:00,45.0,38.6,29.03,West,270,0.0,-999.0,78,-99.99,,,0.00,Acu-Link.com,2013-04-14 07:18:00,
2013-04-14 02:34:00,44.8,39.0,29.02,West,270,0.0,-999.0,80,-99.99,,,0.00,Acu-Link.com,2013-04-14 07:34:00,
2013-04-14 02:50:00,44.8,39.0,29.02,West,270,0.0,-999.0,80,-99.99,,,0.00,Acu-Link.com,2013-04-14 07:50:00,
2013-04-14 03:10:00,44.4,39.6,29.03,WSW,247,0.0,-999.0,83,-99.99,,,0.00,Acu-Link.com,2013-04-14 08:10:00,
2013-04-14 03:26:00,43.9,39.4,29.03,NNE,22,0.0,-999.0,84,-99.99,,,0.00,Acu-Link.com,2013-04-14 08:26:00,
2013-04-14 03:42:00,43.5,39.0,29.03,ENE,67,0.0,-999.0,84,-99.99,,,0.00,Acu-Link.com,2013-04-14 08:42:00,
2013-04-14 03:59:00,43.0,37.9,29.02,NE,45,0.0,-999.0,82,-99.99,,,0.00,Acu-Link.com,2013-04-14 08:59:00,
2013-04-14 04:14:00,42.8,36.4,29.02,East,90,0.0,-999.0,78,-99.99,,,0.00,Acu-Link.com,2013-04-14 09:14:00,
2013-04-14 04:31:00,42.8,35.8,29.02,NNE,22,0.0,-999.0,76,-99.99,,,0.00,Acu-Link.com,2013-04-14 09:31:00,
2013-04-14 05:01:00,42.8,35.8,28.99,East,90,0.0,-999.0,76,-99.99,,,0.00,Acu-Link.com,2013-04-14 10:01:00,
2013-04-14 05:23:00,42.8,35.8,28.97,SW,225,0.0,-999.0,76,-99.99,,,0.00,Acu-Link.com,2013-04-14 10:23:00,
2013-04-14 05:39:00,43.0,36.3,28.95,NW,315,0.0,-999.0,77,-99.99,,,0.00,Acu-Link.com,2013-04-14 10:39:00,
2013-04-14 05:57:00,43.0,36.6,28.93,WNW,292,0.0,-999.0,78,-99.99,,,0.00,Acu-Link.com,2013-04-14 10:57:00,
2013-04-14 06:12:00,43.2,36.8,28.92,NE,45,0.0,-999.0,78,-99.99,,,0.00,Acu-Link.com,2013-04-14 11:12:00,
2013-04-14 06:28:00,43.2,36.8,28.91,SE,135,0.0,-999.0,78,-99.99,,,0.00,Acu-Link.com,2013-04-14 11:28:00,
2013-04-14 06:43:00,43.3,36.9,28.91,West,270,0.0,-999.0,78,-99.99,,,0.00,Acu-Link.com,2013-04-14 11:43:00,
2013-04-14 07:17:00,43.5,37.1,28.90,NNE,22,0.0,-999.0,78,-99.99,,,0.00,Acu-Link.com,2013-04-14 12:17:00,
2013-04-14 07:32:00,44.1,38.0,28.90,North,0,0.0,-999.0,79,-99.99,,,0.00,Acu-Link.com,2013-04-14 12:32:00,
2013-04-14 07:49:00,44.2,38.1,28.88,SE,135,0.0,-999.0,79,-99.99,,,0.00,Acu-Link.com,2013-04-14 12:49:00,
2013-04-14 08:05:00,45.3,39.2,28.87,North,0,0.0,-999.0,79,-99.99,,,0.00,Acu-Link.com,2013-04-14 13:05:00,
2013-04-14 08:20:00,45.5,39.4,28.86,NNW,337,0.0,-999.0,79,-99.99,,,0.00,Acu-Link.com,2013-04-14 13:20:00,
2013-04-14 08:43:00,45.5,39.4,28.85,NE,45,0.0,-999.0,79,-99.99,,,0.00,Acu-Link.com,2013-04-14 13:43:00,
2013-04-14 08:58:00,49.6,43.7,28.85,East,90,0.0,-999.0,80,-99.99,,,0.00,Acu-Link.com,2013-04-14 13:58:00,
2013-04-14 09:13:00,50.2,44.3,28.85,NNE,22,0.0,-999.0,80,-99.99,,,0.00,Acu-Link.com,2013-04-14 14:13:00,
2013-04-14 09:44:00,51.1,45.1,28.85,East,90,0.0,-999.0,80,-99.99,,,0.00,Acu-Link.com,2013-04-14 14:44:00,
2013-04-14 09:59:00,51.3,45.3,28.85,SE,135,0.0,-999.0,80,-99.99,,,0.00,Acu-Link.com,2013-04-14 14:59:00,
2013-04-14 10:14:00,52.9,47.2,28.84,SE,135,0.0,-999.0,81,-99.99,,,0.00,Acu-Link.com,2013-04-14 15:14:00,
2013-04-14 10:29:00,52.5,46.8,28.83,SSW,202,0.0,-999.0,81,-99.99,,,0.00,Acu-Link.com,2013-04-14 15:29:00,
2013-04-14 10:44:00,50.9,45.9,28.81,East,90,0.0,-999.0,83,-99.99,,,0.01,Acu-Link.com,2013-04-14 15:44:00,
2013-04-14 10:59:00,51.3,44.3,28.79,SE,135,0.0,-999.0,77,-99.99,,,0.03,Acu-Link.com,2013-04-14 15:59:00,
2013-04-14 11:14:00,52.5,45.5,28.79,SSW,202,0.0,-999.0,77,-99.99,,,0.03,Acu-Link.com,2013-04-14 16:14:00,
2013-04-14 11:29:00,54.0,47.6,28.79,SSE,157,0.0,-999.0,79,-99.99,,,0.03,Acu-Link.com,2013-04-14 16:29:00,
2013-04-14 11:45:00,54.7,48.7,28.78,SE,135,0.0,-999.0,80,-99.99,,,0.03,Acu-Link.com,2013-04-14 16:45:00,
2013-04-14 12:15:00,55.8,50.1,28.77,SSE,157,0.0,-999.0,81,-99.99,,,0.03,Acu-Link.com,2013-04-14 17:15:00,
2013-04-14 12:30:00,57.2,50.7,28.77,South,180,0.0,-999.0,79,-99.99,,,0.03,Acu-Link.com,2013-04-14 17:30:00,
2013-04-14 12:45:00,57.7,51.6,28.76,South,180,0.0,-999.0,80,-99.99,,,0.03,Acu-Link.com,2013-04-14 17:45:00,
2013-04-14 13:00:00,59.2,52.3,28.75,SSE,157,0.0,-999.0,78,-99.99,,,0.03,Acu-Link.com,2013-04-14 18:00:00,
2013-04-14 13:15:00,59.2,52.0,28.74,SSW,202,0.0,-999.0,77,-99.99,,,0.03,Acu-Link.com,2013-04-14 18:15:00,
2013-04-14 13:30:00,60.3,53.8,28.74,SE,135,0.0,-999.0,79,-99.99,,,0.03,Acu-Link.com,2013-04-14 18:30:00,
2013-04-14 13:45:00,63.9,56.2,28.74,SW,225,0.0,-999.0,76,-99.99,,,0.03,Acu-Link.com,2013-04-14 18:45:00,
2013-04-14 14:01:00,66.2,55.3,28.74,SSW,202,0.0,-999.0,68,-99.99,,,0.03,Acu-Link.com,2013-04-14 19:01:00,
2013-04-14 14:16:00,68.5,55.8,28.73,SW,225,0.0,-999.0,64,-99.99,,,0.03,Acu-Link.com,2013-04-14 19:16:00,
2013-04-14 15:16:00,67.8,55.2,28.73,WSW,247,0.0,-999.0,64,-99.99,,,0.03,Acu-Link.com,2013-04-14 20:16:00,
2013-04-14 15:31:00,68.0,55.4,28.73,SSW,202,0.0,-999.0,64,-99.99,,,0.03,Acu-Link.com,2013-04-14 20:31:00,
2013-04-14 16:16:00,66.6,56.5,28.74,SSW,202,0.0,-999.0,70,-99.99,,,0.03,Acu-Link.com,2013-04-14 21:16:00,
2013-04-14 16:32:00,65.8,55.7,28.73,SW,225,0.0,-999.0,70,-99.99,,,0.03,Acu-Link.com,2013-04-14 21:32:00,
2013-04-14 16:47:00,64.9,55.7,28.73,SW,225,0.0,-999.0,72,-99.99,,,0.03,Acu-Link.com,2013-04-14 21:47:00,
2013-04-14 17:02:00,65.3,56.0,28.73,SW,225,0.0,-999.0,72,-99.99,,,0.03,Acu-Link.com,2013-04-14 22:02:00,
2013-04-14 17:17:00,64.4,55.9,28.74,South,180,0.0,-999.0,74,-99.99,,,0.03,Acu-Link.com,2013-04-14 22:17:00,
2013-04-14 17:32:00,64.2,55.7,28.75,SE,135,0.0,-999.0,74,-99.99,,,0.03,Acu-Link.com,2013-04-14 22:32:00,
2013-04-14 17:47:00,57.7,52.9,28.79,SSE,157,0.0,-999.0,84,-99.99,,,0.09,Acu-Link.com,2013-04-14 22:47:00,
2013-04-14 18:02:00,55.4,23.7,28.80,West,270,0.0,-999.0,29,-99.99,,,0.14,Acu-Link.com,2013-04-14 23:02:00,
2013-04-14 18:25:00,55.2,-5.1,28.79,SW,225,0.0,-999.0,8,-99.99,,,0.17,Acu-Link.com,2013-04-14 23:25:00,
2013-04-14 18:40:00,55.8,-43.4,28.79,SW,225,0.0,-999.0,1,-99.99,,,0.17,Acu-Link.com,2013-04-14 23:40:00,
2013-04-14 18:55:00,55.6,-43.5,28.80,SW,225,0.0,-999.0,1,-99.99,,,0.17,Acu-Link.com,2013-04-14 23:55:00,
2013-04-14 19:10:00,55.6,-43.5,28.80,ESE,112,0.0,-999.0,1,-99.99,,,0.17,Acu-Link.com,2013-04-15 00:10:00,
2013-04-14 19:25:00,55.4,-43.7,28.80,SSW,202,0.0,-999.0,1,-99.99,,,0.17,Acu-Link.com,2013-04-15 00:25:00,
2013-04-14 19:40:00,55.2,-43.8,28.83,NNW,337,0.0,-999.0,1,-99.99,,,0.17,Acu-Link.com,2013-04-15 00:40:00,
2013-04-14 19:55:00,55.4,-43.7,28.84,NNW,337,0.0,-999.0,1,-99.99,,,0.17,Acu-Link.com,2013-04-15 00:55:00,
2013-04-14 20:11:00,53.8,-44.6,28.85,North,0,0.0,-999.0,1,-99.99,,,0.17,Acu-Link.com,2013-04-15 01:11:00,
2013-04-14 20:26:00,53.2,-1.9,28.86,WNW,292,0.0,-999.0,10,-99.99,,,0.17,Acu-Link.com,2013-04-15 01:26:00,
2013-04-14 21:26:00,51.8,-3.0,28.89,North,0,0.0,-999.0,10,-99.99,,,0.17,Acu-Link.com,2013-04-15 02:26:00,